Regional Weather Roundup
Issued by NWS

Home | Current Version | Previous Version | Graphics & Text | Print | Product List | Glossary On
Versions: 1 2 3 4 5 6 7 8 9 10 11 12 13 14 15 16 17 18 19 20 21 22 23 24 25 26 27 28 29 30 31 32 33 34 35 36 37 38 39 40 41 42 43 44 45 46 47 48 49 50
000
ASUS44 KMEG 271610
RWRTN
TENNESSEE HOURLY STATE WEATHER ROUNDUP
NATIONAL WEATHER SERVICE MEMPHIS TN
1100 AM CDT MON MAR 27 2017

TNZ002-004-019-021-049-052-054-088>092-271700-
WEST TENNESSEE

CITY           SKY/WX    TMP DP  RH WIND       PRES   REMARKS
MEMPHIS INTL   PTSUNNY   74  63  68 S15G25    29.89F
NWS MEMPHIS      N/A     73 N/A N/A MISG        N/A
JACKSON        CLOUDY    68  64  87 SW5       29.93R
DYERSBURG      MOSUNNY   72  61  68 S8        29.89F
SOMERVILLE     PTSUNNY   72  64  78 SW13      29.90F
BOLIVAR        CLOUDY    72  64  78 S8G16     29.92S
PARIS          MOSUNNY   64  61  88 S14       29.91F
HUNTINGDON     CLOUDY    68  63  83 S9        29.91F
SAVANNAH       PTSUNNY   70  63  78 S10G18    29.94R
$$

TNZ008-025-027-028-033-062-065-066-271700-
NORTH MIDDLE TENNESSEE

CITY           SKY/WX    TMP DP  RH WIND       PRES   REMARKS
NASHVILLE      CLOUDY    70  60  70 S15G22    29.98S
PORTLAND       SUNNY     68  61  77 S15       29.96F
CLARKSVILLE    CLOUDY    67  61  81 S14       29.93S
SMYRNA         CLOUDY    72  62  71 S8G18     29.98F
COOKEVILLE     PTSUNNY   70  61  73 SW13      30.01F
GALLATIN       PTSUNNY   70  61  73 S7G14     30.00F
CROSSVILLE     CLOUDY    68  57  68 SW7       30.05F
$$

TNZ061-075-076-078-094-096-097-271700-
SOUTH MIDDLE TENNESSEE

CITY           SKY/WX    TMP DP  RH WIND       PRES   REMARKS
FAYETTEVILLE   CLOUDY    70  61  73 S10       30.02F
TULLAHOMA      PTSUNNY   66  61  82 SW12      30.04S
WINCHESTER     CLOUDY    70  59  68 S6        30.04F
MCMINNVILLE    CLOUDY    68  63  83 SW7       30.03F
COLUMBIA       PTSUNNY   70  70 100 S12       29.96S
SHELBYVILLE    PTSUNNY   72  63  73 S14       30.02F
$$

TNZ017-018-042-046-047-271700-
NORTHEAST TENNESSEE

CITY           SKY/WX    TMP DP  RH WIND       PRES   REMARKS
TRI CITIES     PTSUNNY   71  56  58 W8        30.07F
ELIZABETHTON   MOSUNNY   72  57  60 CALM      30.07F
$$

TNZ012-013-036-069-073-074-271700-
CENTRAL EAST TENNESSEE

CITY           SKY/WX    TMP DP  RH WIND       PRES   REMARKS
KNOXVILLE      CLOUDY    67  60  78 S14       30.05F
OAK RIDGE      CLOUDY    67  56  67 NW3       30.06F
DOWNTOWN KNOXV CLOUDY    68  61  77 SW8G15    30.06F
GATLINBURG     SUNNY     72  57  60 NW5       30.04F
MORRISTOWN     MOSUNNY   68  61  77 SW13      30.06F
JACKSBORO      SUNNY     70  59  68 S9        30.06F
$$

TNZ083-085-099-271700-
SOUTHEAST TENNESSEE

CITY           SKY/WX    TMP DP  RH WIND       PRES   REMARKS
CHATTANOOGA    CLOUDY    71  60  68 SE7       30.04F
$$

SKY/WX REPORTED AS FAIR MEANS FEW OR NO CLOUDS BELOW
12 THOUSAND FEET.




USA.gov is the U.S. government's official web portal to all federal, state and local government web resources and services.